Home   Weather   Longyearbyen   Past weeks

Flag for Norway Past Weather in Longyearbyen, Svalbard, Norway — Yesterday and Last 2 Weeks

Now
39 °F

Broken clouds.


Feels Like: 37 °F
Forecast: 38 / 43 °F
Wind: 3 mph from East

Location: Svalbard Lufthavn

Current Time: Sep 25, 2016 at 5:52:05 PM

Latest Report: Sep 25, 2016 at 4:50 PM


Visibility: N/A

Pressure: 30.07 "Hg

Humidity: 100%

Dew Point: 39 °F

Location of LongyearbyenLocation

Past Weather in Longyearbyen — Graph

°F

Longyearbyen Temperature Yesterday

Maximum temperature yesterday: 39 °F (at 10:50 AM)
Minimum temperature yesterday: 36 °F (at 12:50 AM)
Average temperature yesterday: 38 °F

High & Low Weather Summary for the Past Weeks

 TemperatureHumidityPressure
High52 °F (Sep 17, 3:20 PM)100% (Sep 24, 12:50 AM)30.09 "Hg (Sep 24, 12:50 AM)
Low32 °F (Sep 10, 9:50 PM)44% (Sep 11, 2:50 AM)29.18 "Hg (Sep 18, 8:50 PM)
Average40 °F82%29.84 "Hg
* Reported Sep 10 3:50 PM — Sep 25 3:50 PM, Longyearbyen, Weather by CustomWeather, © 2016

Note: Actual official high and low records may vary slightly from our data, if they occured in-between our weather recording intervals... More about our weather records

Advertising

Longyearbyen Weather History for the Previous 24 Hours

Scroll right to see more
 ConditionsComfort  
Time TempWeatherWind HumidityBarometerVisibility
3:50 PM
Sun, Sep 25
39 °FBroken clouds.1 mph100%30.04 "HgN/A
2:50 PM39 °FBroken clouds.3 mph100%30.04 "HgN/A
2:20 PM39 °FBroken clouds.3 mph100%30.04 "HgN/A
1:50 PM39 °FBroken clouds.5 mph100%30.04 "HgN/A
11:50 AM39 °FPartly sunny.3 mph100%30.04 "HgN/A
10:50 AM39 °FBroken clouds.2 mph100%30.04 "HgN/A
9:50 AM37 °FBroken clouds.2 mph100%30.04 "HgN/A
8:50 AM37 °FBroken clouds.1 mph100%30.01 "HgN/A
7:50 AM37 °FDrizzle. Broken clouds.6 mph100%30.01 "HgN/A
6:50 AM37 °FPassing clouds.7 mph100%30.01 "HgN/A
6:20 AM39 °FPartly cloudy.No wind93%30.01 "HgN/A
4:50 AM39 °FPassing clouds.No wind93%30.01 "HgN/A
4:20 AM39 °FPassing clouds.5 mph93%30.01 "HgN/A
3:20 AM39 °FPartly cloudy.No wind93%30.01 "HgN/A
12:20 AM39 °FPartly cloudy.3 mph93%30.01 "Hg3 mi
11:20 PM
Sat, Sep 24
39 °FPartly cloudy.3 mph93%30.01 "HgN/A
10:50 PM39 °FPartly cloudy.3 mph93%30.01 "HgN/A
10:20 PM39 °FPartly cloudy.No wind93%30.01 "HgN/A
8:50 PM39 °FPartly cloudy.3 mph100%30.01 "HgN/A
7:50 PM39 °FLight rain. Partly cloudy.6 mph93%30.01 "HgN/A
6:50 PM39 °FLight rain. Partly cloudy.5 mph93%30.01 "HgN/A
5:50 PM39 °FBroken clouds.5 mph93%30.01 "HgN/A
Weather by CustomWeather, © 2016

See weather overviewHow to use our weather pages